Location: Newark
(50.3874°N, 10.2208°E)
Time: 09:37:12
(UTC+00:00)

N. Korean satellite - Visible Passes

Search period start: 21 October 2019 00:00
Search period end: 31 October 2019 00:00
Orbit: 455 x 508 km, 97.2° (Epoch: 20 October)

Date Brightness Start Highest point End Pass type
(mag) Time Alt. Az. Time Alt. Az. Time Alt. Az.
21 Oct 9.9 04:23:02 10° NE 04:25:32 18° E 04:28:04 10° SE visible
23 Oct 7.7 05:05:01 10° NNE 05:08:33 50° E 05:12:08 10° S visible
23 Oct 9.9 17:19:33 10° SW 17:21:56 17° W 17:24:21 10° NW visible
24 Oct 9.1 04:40:00 10° NE 04:43:09 27° E 04:46:17 10° SSE visible
24 Oct 8.6 16:53:18 10° SSW 16:56:26 32° W 16:59:37 10° NNW visible
25 Oct 10.1 04:15:28 10° NE 04:17:38 15° E 04:19:49 10° SE visible
26 Oct 6.8 05:22:22 10° NNE 05:26:02 82° ESE 05:29:44 10° SSW visible
26 Oct 10.3 17:38:19 10° WSW 17:39:33 11° W 17:40:47 10° WNW visible
27 Oct 8.1 04:57:10 10° NNE 05:00:41 41° E 05:04:11 10° S visible
27 Oct 9.5 17:11:16 10° SW 17:13:58 21° W 17:16:44 10° NW visible
28 Oct 9.4 04:32:15 10° NE 04:35:13 23° E 04:38:11 10° SSE visible
28 Oct 8.1 16:45:13 10° S 16:48:29 40° W 16:51:52 10° NNW visible
29 Oct 10.3 04:07:59 10° ENE 04:09:41 13° E 04:11:22 10° ESE visible
30 Oct 7.1 05:14:28 10° NNE 05:18:09 67° ESE 05:21:50 10° S visible
30 Oct 10.0 17:29:36 10° WSW 17:31:32 14° W 17:33:29 10° NW visible
